Location: ????????
(55.6189°N, 38.3031°E)
Time: 08:44:15
(UTC+00:00)

COSMOS 2406 - Pass Details

Date: 15 November 2019
Orbit: 843 x 864 km, 71.0° (Epoch: 06 December)

Event Time Altitude Azimuth Distance (km) Brightness Sun altitude
Exits shadow 03:01:58 26° 284° (WNW) 1,653 4.1 -16.4°
Maximum altitude 03:04:10 34° 324° (NW) 1,399 4.0 -16.1°
Drops below altitude 10° 03:09:24 10° 28° (NNE) 2,513 5.9 -15.4°
Sets 03:12:07 0° 38° (NE) 3,450 6.8 -15.0°
